15min,AgWx,beryljct,423,10FEB2019:00:00:00,29.6,12.88,31.9,31.3,31.0,31.5,30.4,67,69,66,0.396,21.4,21.7,21.2,6.401,3.4,114,40,9.5,-0.00003,-0.00002,.,33.9,25,0,0,35.5,10.59,0.00,0.00
15min,AgWx,beryljct,423,10FEB2019:00:15:00,29.8,12.73,32.0,31.9,31.7,32.1,31.2,66,67,65,0.395,21.6,21.8,21.4,5.963,6.9,168,17,14.4,0.00007,0.00010,.,33.9,25,0,0,35.6,10.59,0.00,0.00
15min,AgWx,beryljct,423,10FEB2019:00:30:00,30.2,12.87,32.4,32.1,31.9,32.2,31.8,65,66,65,0.398,21.6,21.7,21.5,10.41,9.4,178,11,14.2,0.00011,0.00014,.,33.9,25,0,0,35.6,10.59,0.00,0.00
15min,AgWx,beryljct,423,10FEB2019:00:45:00,30.7,12.86,32.3,31.8,32.0,32.2,31.8,65,66,64,0.397,21.6,21.7,21.5,14.05,11.4,182,9.9,16.4,0.00014,0.00017,.,33.9,25,0,0,35.5,10.59,0.00,0.00
15min,AgWx,beryljct,423,10FEB2019:01:00:00,31.1,12.86,32.6,32.2,32.1,32.3,31.8,65,66,64,0.400,21.7,21.8,21.6,14.56,17.7,184,6.0,22.5,0.00018,0.00021,.,33.9,24,0,0,35.6,10.59,0.00,0.00
15min,AgWx,beryljct,423,10FEB2019:01:15:00,31.5,12.85,32.1,31.4,31.7,32.2,31.3,67,68,65,0.406,21.9,22.2,21.7,14.21,12.5,172,8.1,16.7,0.00014,0.00016,.,33.9,25,0,0,35.5,10.59,0.00,0.00
15min,AgWx,beryljct,423,10FEB2019:01:30:00,31.8,12.84,32.5,32.1,31.9,32.2,31.5,67,68,66,0.407,22.1,22.2,22.0,18.46,17.9,182,6.6,22.4,0.00017,0.00020,.,33.9,25,0,0,35.8,10.59,0.00,0.00
15min,AgWx,beryljct,423,10FEB2019:01:45:00,31.9,12.84,32.5,31.8,32.0,32.3,31.7,66,68,66,0.407,22.1,22.3,22.0,16.02,16.3,183,5.7,25.7,0.00017,0.00019,.,33.9,25,0,0,35.9,10.59,0.00,0.00
15min,AgWx,beryljct,423,10FEB2019:02:00:00,32.1,12.84,32.2,31.9,31.9,32.1,31.8,67,68,66,0.407,22.2,22.3,22.0,11.2,12.5,181,6.7,18.0,0.00014,0.00016,.,33.8,25,0,0,35.8,10.59,0.00,0.00
15min,AgWx,beryljct,423,10FEB2019:02:15:00,32.1,12.83,32.0,31.4,31.6,31.8,31.4,68,68,67,0.405,22.1,22.3,22.0,12.54,12.1,180,9.0,16.2,0.00013,0.00015,.,33.9,25,0,0,35.4,10.59,0.00,0.00
15min,AgWx,beryljct,423,10FEB2019:02:30:00,32.2,12.82,32.8,32.3,31.8,32.3,31.4,67,68,66,0.408,22.3,22.4,22.1,14.99,12.6,194,5.9,18.4,0.00014,0.00016,.,33.9,25,0,0,35.9,10.59,0.00,0.00
15min,AgWx,beryljct,423,10FEB2019:02:45:00,32.5,12.69,32.7,32.2,32.2,32.4,32.0,67,67,66,0.414,22.4,22.6,22.2,14.71,14.5,195,6.2,18.8,0.00016,0.00018,.,33.8,25,0,0,35.7,10.59,0.00,0.00
15min,AgWx,beryljct,423,10FEB2019:03:00:00,32.6,12.81,31.9,31.6,32.0,32.2,31.6,67,68,66,0.409,22.3,22.5,22.2,13.35,14.8,190,6.6,20.1,0.00015,0.00018,.,33.8,24,0,0,35.3,10.59,0.00,0.00
15min,AgWx,beryljct,423,10FEB2019:03:15:00,32.5,12.81,32.8,32.0,31.7,32.1,31.3,68,69,66,0.407,22.3,22.4,22.1,16.68,14.6,191,5.9,18.2,0.00015,0.00017,.,33.8,24,0,0,35.6,10.59,0.00,0.00
15min,AgWx,beryljct,423,10FEB2019:03:30:00,32.6,12.8,32.7,32.0,32.1,32.3,32.0,66,67,66,0.407,22.2,22.3,22.1,15.74,14.8,193,5.9,19.0,0.00016,0.00018,.,33.8,24,0,0,35.8,10.59,0.00,0.00
15min,AgWx,beryljct,423,10FEB2019:03:45:00,32.6,12.79,32.5,32.1,32.1,32.4,31.9,66,67,65,0.404,22.1,22.2,21.9,14.14,14.8,198,6.4,20.3,0.00016,0.00019,.,33.8,25,0,0,35.6,10.59,0.00,0.00
15min,AgWx,beryljct,423,10FEB2019:04:00:00,32.6,12.79,32.4,32.0,32.1,32.3,32.0,66,66,65,0.403,21.9,22.1,21.8,10.79,13.1,197,7.7,17.5,0.00015,0.00018,.,33.8,25,0,0,35.8,10.59,0.00,0.00
15min,AgWx,beryljct,423,10FEB2019:04:15:00,32.6,12.78,32.8,32.2,32.1,32.4,31.8,66,67,65,0.403,21.9,22.2,21.8,11.95,12.4,195,7.2,16.5,0.00015,0.00017,.,33.8,25,0,0,35.9,10.59,0.00,0.00
15min,AgWx,beryljct,423,10FEB2019:04:30:00,32.7,12.79,32.7,32.2,32.1,32.3,31.9,66,66,65,0.401,21.9,22.1,21.8,10.39,10.1,195,7.6,13.3,0.00012,0.00015,.,33.8,25,0,0,35.6,10.59,0.00,0.00
15min,AgWx,beryljct,423,10FEB2019:04:45:00,32.5,12.78,31.4,31.4,31.7,32.2,31.4,66,67,65,0.400,21.8,22.0,21.6,7.344,8.3,194,7.5,10.9,0.00009,0.00012,.,33.8,25,0,0,35.5,10.59,0.00,0.00
15min,AgWx,beryljct,423,10FEB2019:05:00:00,32.3,12.77,32.6,32.2,31.7,32.2,31.2,66,68,64,0.394,21.6,21.9,21.4,7.914,9.2,201,11,13.9,0.00011,0.00014,.,33.8,24,0,0,35.5,10.59,0.00,0.00
15min,AgWx,beryljct,423,10FEB2019:05:15:00,32.2,12.76,32.6,32.0,31.7,32.2,31.3,65,67,64,0.390,21.4,21.7,21.2,10.98,10.9,199,7.4,16.9,0.00013,0.00016,.,33.8,25,0,0,35.6,10.59,0.00,0.00
15min,AgWx,beryljct,423,10FEB2019:05:30:00,32.2,12.75,31.8,31.3,31.6,32.1,31.3,65,66,64,0.393,21.3,21.5,21.1,12.21,10.1,199,9.2,14.2,0.00012,0.00015,.,33.8,24,0,0,35.5,10.59,0.00,0.00
15min,AgWx,beryljct,423,10FEB2019:05:45:00,32.1,12.76,31.9,31.3,31.2,31.6,30.7,67,69,66,0.393,21.4,21.7,21.2,8.86,8.8,195,10,15.1,0.00010,0.00012,.,33.8,25,0,0,35.4,10.59,0.00,0.00
15min,AgWx,beryljct,423,10FEB2019:06:00:00,32.0,12.75,32.4,31.3,31.2,31.5,30.9,67,68,66,0.394,21.5,21.7,21.3,15.35,9.1,184,12,15.4,0.00010,0.00013,.,33.8,25,0,0,35.7,10.59,0.00,0.00
15min,AgWx,beryljct,423,10FEB2019:06:15:00,32.1,12.74,31.8,31.4,31.5,31.8,31.0,65,67,64,0.393,21.3,21.5,21.1,10.98,9.4,190,9.3,15.5,0.00011,0.00014,.,33.8,25,0,0,35.6,10.58,0.00,0.00
15min,AgWx,beryljct,423,10FEB2019:06:30:00,32.0,12.73,31.8,30.8,31.0,31.4,30.6,67,68,66,0.393,21.3,21.5,21.1,9.32,7.9,188,11,11.5,0.00008,0.00011,.,33.8,25,0,0,35.5,10.58,0.00,0.00
15min,AgWx,beryljct,423,10FEB2019:06:45:00,31.6,12.73,30.3,30.2,30.3,30.9,29.8,68,70,67,0.385,21.1,21.4,20.8,6.138,6.4,182,12,9.2,0.00027,0.00047,.,33.8,25,0,0,35.6,10.59,0.00,0.00
15min,AgWx,beryljct,423,10FEB2019:07:00:00,31.0,12.72,30.5,30.1,29.8,30.2,29.3,69,70,68,0.383,20.9,21.2,20.6,7.651,6.7,183,11,11.1,0.00027,0.00047,.,33.8,24,0,0,35.5,10.59,0.00,0.00
15min,AgWx,beryljct,423,10FEB2019:07:15:00,30.5,12.69,29.3,29.2,29.6,30.2,29.2,69,69,67,0.379,20.6,20.8,20.3,7.848,9.3,178,6.8,13.9,0.00034,0.00059,.,33.8,25,0,0,35.6,10.59,0.00,0.00
15min,AgWx,beryljct,423,10FEB2019:07:30:00,30.1,12.7,30.4,29.8,29.3,30.0,28.7,69,71,67,0.378,20.5,20.7,20.2,8.62,9.9,178,10,15.4,0.00035,0.00061,.,33.8,24,3,0,35.6,10.59,0.00,0.00
15min,AgWx,beryljct,423,10FEB2019:07:45:00,29.9,12.63,29.4,29.4,29.7,30.0,29.3,68,69,67,0.375,20.3,20.5,20.0,6.292,8.3,184,18,11.9,0.00037,0.00062,.,33.8,24,15,0,36.0,10.59,0.00,0.00
15min,AgWx,beryljct,423,10FEB2019:08:00:00,29.8,12.87,29.6,29.4,29.3,29.7,28.8,69,70,68,0.377,20.3,20.5,20.0,3.858,5.8,187,11,8.6,0.00040,0.00059,.,33.8,24,49,0,35.7,10.59,0.00,0.00
15min,AgWx,beryljct,423,10FEB2019:08:15:00,30.0,13.19,31.4,30.9,30.0,30.9,29.3,68,69,65,0.377,20.5,20.7,20.3,2.017,2.3,206,15,5.1,0.00043,0.00054,.,33.8,24,105,0,37.4,10.59,0.00,0.00
15min,AgWx,beryljct,423,10FEB2019:08:30:00,31.0,13.54,31.6,31.1,31.2,31.6,30.9,64,65,63,0.376,20.5,21.0,20.2,0.526,1.5,202,31,4.8,0.00055,0.00065,.,33.8,24,147,0,42.6,10.59,0.00,0.00
15min,AgWx,beryljct,423,10FEB2019:08:45:00,32.6,14.44,33.1,32.7,32.0,32.8,31.2,63,64,62,0.396,20.8,21.9,20.3,7.826,5.9,196,25,11.5,0.00085,0.00111,.,33.8,25,212,0,43.9,10.59,0.00,0.00
15min,AgWx,beryljct,423,10FEB2019:09:00:00,34.0,14.76,32.8,32.7,32.7,32.9,32.5,62,63,61,0.388,21.2,21.7,20.7,10.15,9.8,188,12,13.1,0.00104,0.00141,.,33.8,26,253,0,42.1,10.58,0.00,0.00
15min,AgWx,beryljct,423,10FEB2019:09:15:00,35.1,14.73,33.8,33.0,33.0,33.3,32.7,62,62,60,0.389,21.2,21.7,20.8,11.29,10.9,183,11,15.0,0.00116,0.00157,.,33.8,26,287,0,42.0,10.58,0.00,0.00
15min,AgWx,beryljct,423,10FEB2019:09:30:00,35.9,14.64,34.1,33.8,33.7,34.0,33.0,60,61,59,0.392,21.4,22.0,21.0,13.92,13.2,182,13,18.3,0.00132,0.00180,.,33.8,25,336,0,42.7,10.59,0.00,0.00
15min,AgWx,beryljct,423,10FEB2019:09:45:00,36.6,14.73,34.9,34.1,33.9,34.2,33.7,60,61,59,0.395,21.4,21.9,21.1,15.85,16.5,174,9.8,22.7,0.00144,0.00199,.,33.8,25,376,0,42.2,10.59,0.00,0.00
15min,AgWx,beryljct,423,10FEB2019:10:00:00,37.3,14.65,35.0,34.4,34.4,34.6,34.1,59,60,57,0.383,21.5,21.9,20.7,17.12,17.5,179,8.6,27.7,0.00156,0.00214,.,33.8,25,416,0,42.8,10.59,0.00,0.00
15min,AgWx,beryljct,423,10FEB2019:10:15:00,37.9,14.64,35.7,35.5,35.0,35.7,34.4,58,59,57,0.398,21.8,22.7,20.8,16.11,16.6,185,9.4,22.4,0.00169,0.00229,.,33.8,25,457,0,43.9,10.58,0.00,0.00
15min,AgWx,beryljct,423,10FEB2019:10:30:00,38.5,14.68,35.6,35.4,35.4,35.7,35.2,57,58,56,0.401,21.8,22.3,21.4,22.49,19.2,185,9.5,26.9,0.00180,0.00246,.,33.8,26,493,0,44.1,10.59,0.00,0.00
15min,AgWx,beryljct,423,10FEB2019:10:45:00,38.8,14.63,36.1,35.9,35.6,36.0,35.2,57,58,56,0.407,22.0,22.8,21.4,22.67,22.3,185,7.3,28.6,0.00187,0.00257,.,33.8,26,527,0,43.7,10.59,0.00,0.00
15min,AgWx,beryljct,423,10FEB2019:11:00:00,39.2,14.74,36.4,36.1,36.4,36.7,35.9,56,58,55,0.403,22.2,23.0,21.5,22.69,21.9,194,7.8,29.7,0.00200,0.00274,.,33.8,25,558,0,44.9,10.58,0.00,0.00
15min,AgWx,beryljct,423,10FEB2019:11:15:00,39.6,14.6,36.4,36.5,36.5,36.8,36.1,55,57,54,0.401,22.0,23.0,21.4,25.43,23.8,196,7.7,29.5,0.00206,0.00283,.,33.8,26,586,0,44.7,10.59,0.01,0.00
15min,AgWx,beryljct,423,10FEB2019:11:30:00,39.7,14.22,36.9,36.8,36.8,37.6,36.2,56,57,54,0.402,22.4,23.4,21.3,26.39,24.2,191,8.5,30.3,0.00211,0.00289,.,33.8,24,610,0,44.8,10.59,0.00,0.00
15min,AgWx,beryljct,423,10FEB2019:11:45:00,40.1,14.22,37.7,37.2,37.1,37.5,36.7,54,56,52,0.399,22.1,23.1,21.3,23.48,24.9,195,9.7,31.8,0.00219,0.00301,.,33.8,26,627,0,45.1,10.58,0.00,0.00
15min,AgWx,beryljct,423,10FEB2019:12:00:00,40.4,14.19,38.0,37.7,37.6,38.1,37.2,52,54,49,0.382,21.4,22.2,20.4,27.97,25.6,197,8.1,35.7,0.00231,0.00320,.,33.8,24,646,0,45.4,10.58,0.00,0.00
15min,AgWx,beryljct,423,10FEB2019:12:15:00,40.6,14.21,38.0,38.2,37.9,38.4,37.5,50,52,49,0.381,20.9,21.7,20.2,30.38,25.5,194,10,33.1,0.00236,0.00329,.,33.8,26,650,0,45.2,10.59,0.00,0.00
15min,AgWx,beryljct,423,10FEB2019:12:30:00,41.0,14.18,38.9,38.6,38.4,38.9,37.9,50,53,48,0.384,21.3,22.6,20.2,24.66,25.1,192,9.6,33.2,0.00245,0.00339,.,33.8,24,671,0,45.7,10.58,0.00,0.00
15min,AgWx,beryljct,423,10FEB2019:12:45:00,41.4,14.17,39.5,39.5,38.9,39.5,38.5,49,51,47,0.404,21.4,22.4,20.3,23.87,24.3,198,9.7,31.9,0.00252,0.00348,.,33.8,25,673,0,46.2,10.58,0.00,0.00
15min,AgWx,beryljct,423,10FEB2019:13:00:00,41.7,14.17,39.4,38.7,39.1,39.5,38.7,48,49,46,0.375,21.0,22.0,20.2,24.11,27.3,194,8.9,34.5,0.00256,0.00359,.,33.8,24,679,0,45.6,10.58,0.00,0.00
15min,AgWx,beryljct,423,10FEB2019:13:15:00,42.2,14.14,39.5,39.3,39.8,40.7,38.7,48,50,46,0.377,21.9,23.3,20.4,25.45,23.1,187,10,33.1,0.00253,0.00350,.,33.8,24,641,0,46.3,10.58,0.00,0.00
15min,AgWx,beryljct,423,10FEB2019:13:30:00,42.5,14.15,39.4,39.5,39.3,39.6,39.0,47,49,46,0.384,20.9,21.6,20.1,22.78,25.2,188,7.8,31.7,0.00260,0.00362,.,33.8,24,683,0,45.6,10.58,0.00,0.00
15min,AgWx,beryljct,423,10FEB2019:13:45:00,43.0,14.15,39.9,40.0,40.1,40.5,39.4,45,48,43,0.380,20.6,21.7,19.5,21.53,21.6,194,8.2,28.6,0.00265,0.00367,.,33.8,24,647,0,46.8,10.57,0.00,0.00
15min,AgWx,beryljct,423,10FEB2019:14:00:00,43.4,14.12,41.0,40.6,40.1,40.9,39.5,46,48,44,0.388,21.0,22.5,20.1,23.19,22.2,188,13,28.9,0.00258,0.00359,.,33.8,24,631,0,45.9,10.58,0.00,0.00
15min,AgWx,beryljct,423,10FEB2019:14:15:00,43.3,14.17,39.8,39.4,39.6,40.6,38.5,47,49,46,0.387,21.2,22.4,20.3,27.36,25.5,189,9.3,33.1,0.00219,0.00320,.,33.8,25,496,0,44.6,10.57,0.00,0.00
15min,AgWx,beryljct,423,10FEB2019:14:30:00,42.9,14.14,39.0,38.5,38.6,40.2,38.0,50,52,47,0.404,21.4,22.5,20.5,22.36,22.6,195,8.6,29.2,0.00180,0.00268,.,33.8,24,340,0,43.3,10.57,0.00,0.00
15min,AgWx,beryljct,423,10FEB2019:14:45:00,42.5,14.17,39.9,40.4,39.1,40.5,38.3,51,52,49,0.414,22.4,23.6,21.5,22.95,18.3,196,8.8,26.6,0.00190,0.00271,.,33.8,24,433,0,44.9,10.58,0.00,0.00
15min,AgWx,beryljct,423,10FEB2019:15:00:00,42.8,14.27,42.4,40.7,39.9,40.7,39.2,49,51,48,0.429,22.4,23.4,21.8,20.87,22.0,199,11,30.9,0.00220,0.00313,.,33.8,24,517,0,45.1,10.57,0.00,0.00
15min,AgWx,beryljct,423,10FEB2019:15:15:00,43.5,14.12,40.6,40.6,40.7,41.3,40.2,47,50,45,0.398,22.0,23.5,21.0,23.52,21.5,198,9.1,31.3,0.00244,0.00344,.,33.8,24,565,0,45.7,10.57,0.00,0.00
15min,AgWx,beryljct,423,10FEB2019:15:30:00,43.9,14.14,40.5,40.0,40.2,40.6,39.7,47,49,46,0.401,21.7,22.6,21.1,20.91,22.0,197,10,29.1,0.00217,0.00314,.,33.8,24,473,0,44.5,10.57,0.00,0.00
15min,AgWx,beryljct,423,10FEB2019:15:45:00,43.8,14.11,40.0,39.2,39.7,40.4,39.0,48,49,47,0.399,21.6,22.8,20.9,17.47,21.6,197,9.7,30.4,0.00193,0.00286,.,33.8,24,400,0,43.2,10.57,0.00,0.00
15min,AgWx,beryljct,423,10FEB2019:16:00:00,43.0,14.15,38.8,38.4,38.7,39.5,38.4,50,50,49,0.393,21.5,22.3,21.0,24.2,22.3,196,8.3,28.0,0.00139,0.00225,.,33.8,24,204,0,42.2,10.58,0.01,0.00
15min,AgWx,beryljct,423,10FEB2019:16:15:00,42.2,13.42,38.5,38.3,38.3,38.6,38.0,51,53,50,0.407,22.0,22.6,21.4,25.85,23.3,193,8.9,31.9,0.00129,0.00213,.,33.8,24,180,0,42.2,10.58,0.00,0.00
15min,AgWx,beryljct,423,10FEB2019:16:30:00,41.5,13.36,37.9,37.6,38.0,38.2,37.6,53,54,52,0.415,22.5,22.8,21.9,26.68,21.6,200,9.5,29.2,0.00112,0.00188,.,33.8,24,141,0,41.6,10.58,0.00,0.00
15min,AgWx,beryljct,423,10FEB2019:16:45:00,40.7,13.28,36.9,36.7,37.0,37.6,36.6,58,60,54,0.444,23.5,24.3,22.6,21.94,23.1,201,6.9,32.0,0.00093,0.00163,.,33.8,24,103,0,40.2,10.58,0.00,0.00
15min,AgWx,beryljct,423,10FEB2019:17:00:00,39.6,13.24,36.7,36.1,35.9,36.8,35.3,64,67,60,0.442,24.8,25.6,24.0,27.27,22.1,195,9.4,35.1,0.00073,0.00129,.,33.8,25,90,0,38.4,10.58,0.00,0.00
15min,AgWx,beryljct,423,10FEB2019:17:15:00,38.9,13.17,37.1,36.5,36.1,36.5,35.9,62,64,59,0.430,24.3,24.9,23.5,27.71,21.4,196,8.8,31.2,0.00028,0.00031,.,33.8,24,60,0,38.3,10.58,0.00,0.00
15min,AgWx,beryljct,423,10FEB2019:17:30:00,38.5,13.15,37.1,36.4,36.5,36.7,36.3,59,60,58,0.434,23.6,23.9,23.2,27.4,26.1,192,8.1,36.4,0.00032,0.00034,.,33.8,24,32,0,38.3,10.58,0.00,0.00
15min,AgWx,beryljct,423,10FEB2019:17:45:00,38.3,13.11,36.5,36.3,36.5,36.6,36.3,59,60,59,0.437,23.5,23.9,23.4,21.46,24.6,195,7.9,31.5,0.00030,0.00033,.,33.8,25,19,0,37.9,10.58,0.00,0.00
15min,AgWx,beryljct,423,10FEB2019:18:00:00,38.2,13.09,36.3,35.7,36.3,36.5,35.7,60,63,59,0.444,23.8,24.3,23.5,20.04,23.5,194,8.2,33.8,0.00029,0.00031,.,33.8,24,9,0,37.6,10.58,0.00,0.00
15min,AgWx,beryljct,423,10FEB2019:18:15:00,38.0,13.07,36.3,35.9,36.0,36.1,35.7,62,63,61,0.450,24.1,24.6,23.9,28.54,22.4,192,9.8,31.4,0.00026,0.00029,.,33.8,24,2,0,37.4,10.58,0.00,0.00
15min,AgWx,beryljct,423,10FEB2019:18:30:00,37.7,13.06,34.2,33.9,35.1,35.9,33.9,68,75,63,0.497,25.6,27.0,24.5,19.84,22.7,192,7.4,33.0,0.00021,0.00023,.,33.8,24,0,0,36.4,10.58,0.00,0.00
15min,AgWx,beryljct,423,10FEB2019:18:45:00,36.8,13.05,32.8,32.2,32.7,33.9,32.1,83,86,75,0.531,28.1,28.6,27.0,14.73,17.2,192,9.6,24.2,0.00007,0.00008,.,33.8,24,0,0,35.2,10.58,0.00,0.00
15min,AgWx,beryljct,423,10FEB2019:19:00:00,36.1,13.02,33.8,33.3,32.6,33.3,32.2,84,86,79,0.509,28.2,28.6,27.5,15.94,16.4,205,8.3,22.3,0.00006,0.00007,.,33.8,24,0,0,35.8,10.59,0.01,0.00
15min,AgWx,beryljct,423,10FEB2019:19:15:00,35.7,13.01,33.4,33.0,33.2,33.4,33.0,80,82,79,0.519,27.6,28.0,27.4,21.99,16.1,199,8.5,23.7,0.00008,0.00010,.,33.8,24,0,0,35.7,10.60,0.01,0.00
15min,AgWx,beryljct,423,10FEB2019:19:30:00,35.4,12.99,29.5,30.3,32.5,33.0,30.3,84,86,81,0.464,28.3,28.7,25.3,25.87,18.5,212,23,32.9,0.00006,0.00007,.,33.8,24,0,0,35.2,10.60,0.01,0.00
15min,AgWx,beryljct,423,10FEB2019:19:45:00,34.1,12.96,27.5,27.0,27.7,30.1,27.0,89,92,81,0.457,24.8,25.2,24.3,23.3,23.9,289,8.1,31.6,0.00004,0.00004,.,33.8,25,0,0,35.3,10.64,0.03,0.00
15min,AgWx,beryljct,423,10FEB2019:20:00:00,32.2,12.94,24.2,23.7,24.8,27.0,23.7,91,92,90,0.393,22.4,24.9,21.4,20.45,19.7,319,9.3,27.1,0.00002,0.00002,.,33.8,24,0,0,35.2,10.65,0.01,0.00
15min,AgWx,beryljct,423,10FEB2019:20:15:00,30.5,12.93,23.4,22.9,23.3,23.8,22.9,91,91,91,0.381,20.9,21.4,20.6,13.35,17.7,320,7.3,21.9,0.00001,0.00002,.,33.8,25,0,0,35.7,10.65,0.00,0.00
15min,AgWx,beryljct,423,10FEB2019:20:30:00,29.2,12.93,23.6,23.0,22.9,23.0,22.9,91,91,91,0.383,20.7,20.7,20.6,12.96,15.0,313,6.0,18.7,0.00000,0.00001,.,33.8,24,0,0,35.7,10.65,0.00,0.00
15min,AgWx,beryljct,423,10FEB2019:20:45:00,28.5,12.91,24.1,23.4,23.3,23.5,23.0,90,91,87,0.373,20.7,20.8,20.1,7.453,11.0,294,8.6,15.4,-0.00001,-0.00000,.,33.8,24,0,0,35.8,10.65,0.00,0.00
15min,AgWx,beryljct,423,10FEB2019:21:00:00,28.1,12.92,24.8,24.2,23.8,24.2,23.4,83,87,79,0.350,19.4,20.2,18.6,6.401,6.4,297,10,10.3,-0.00001,-0.00001,.,33.8,24,0,0,35.6,10.65,0.00,0.00
15min,AgWx,beryljct,423,10FEB2019:21:15:00,28.0,12.92,24.2,24.0,24.0,24.2,23.8,79,80,77,0.341,18.3,18.7,17.8,4.209,7.4,285,13,14.6,0.00001,0.00002,.,33.7,25,0,0,35.6,10.65,0.00,0.00
15min,AgWx,beryljct,423,10FEB2019:21:30:00,27.6,12.91,23.7,23.4,23.8,23.9,23.4,78,80,77,0.345,17.9,18.3,17.4,6.445,3.0,231,52,6.8,-0.00006,-0.00006,.,33.8,25,0,0,35.6,10.65,0.00,0.00
15min,AgWx,beryljct,423,10FEB2019:21:45:00,27.3,12.9,23.2,22.7,22.9,23.4,22.7,85,87,81,0.361,19.0,19.4,18.4,7.125,7.0,166,7.1,9.7,-0.00001,-0.00001,.,33.8,25,0,0,35.5,10.65,0.00,0.00
15min,AgWx,beryljct,423,10FEB2019:22:00:00,27.0,12.88,22.9,22.4,22.5,22.7,22.4,87,87,87,0.356,19.2,19.4,19.0,7.98,8.2,155,4.7,11.5,-0.00001,-0.00001,.,33.8,24,0,0,35.7,10.65,0.00,0.00
15min,AgWx,beryljct,423,10FEB2019:22:15:00,26.5,12.88,22.8,22.1,22.3,22.5,22.1,87,87,86,0.352,18.9,19.2,18.7,5.349,6.8,178,11,8.8,-0.00002,-0.00002,.,33.8,24,0,0,35.8,10.65,0.00,0.00
15min,AgWx,beryljct,423,10FEB2019:22:30:00,26.1,12.86,22.5,21.9,21.9,22.2,21.7,87,88,87,0.352,18.7,18.9,18.5,6.226,5.3,183,6.5,6.8,-0.00004,-0.00004,.,33.8,25,0,0,35.6,10.65,0.00,0.00
15min,AgWx,beryljct,423,10FEB2019:22:45:00,25.7,12.87,22.0,21.5,21.6,21.9,21.4,88,89,88,0.354,18.7,18.9,18.6,4.275,4.5,188,6.8,6.6,-0.00005,-0.00006,.,33.8,24,0,0,35.7,10.65,0.00,0.00
15min,AgWx,beryljct,423,10FEB2019:23:00:00,25.4,12.86,22.3,21.8,21.6,21.8,21.4,89,90,89,0.356,19.0,19.2,18.8,0.022,3.3,198,6.2,5.3,-0.00008,-0.00009,.,33.8,24,0,0,35.7,10.65,0.01,0.00
15min,AgWx,beryljct,423,10FEB2019:23:15:00,25.1,12.86,21.6,21.2,21.4,21.8,21.1,89,89,88,0.348,18.7,19.0,18.2,1.951,0.3,224,0.0,2.0,-0.00017,-0.00026,.,33.8,25,0,0,35.2,10.65,0.00,0.00
15min,AgWx,beryljct,423,10FEB2019:23:30:00,24.7,12.84,24.1,22.3,21.2,22.3,20.7,88,89,85,0.346,18.3,18.8,17.8,2.28,4.0,219,14,6.4,-0.00006,-0.00006,.,33.7,25,0,0,35.6,10.65,0.00,0.00
15min,AgWx,bigpiney,439,10FEB2019:00:00:00,-4.7,12.55,-7.7,-8.1,-7.3,-6.3,-8.1,83,85,82,0.084,-11.1,-9.7,-12.2,0.811,3.9,209,5.6,6.4,-0.00001,-0.00001,23.1,25.7,7,0,0,0.0,0.06,0.00,0.00
15min,AgWx,bigpiney,439,10FEB2019:00:15:00,-4.9,12.51,-8.6,-8.1,-6.2,-4.4,-8.1,84,87,81,0.083,-9.8,-7.3,-12.4,5.371,1.3,245,65,6.1,-0.00003,-0.00004,23.1,25.7,7,0,0,0.0,0.06,0.00,0.00
15min,AgWx,bigpiney,439,10FEB2019:00:30:00,-5.1,12.52,-8.8,-8.4,-8.3,-7.4,-8.9,82,85,80,0.084,-12.3,-10.8,-13.2,2.455,3.8,236,26,5.9,-0.00001,-0.00001,23.0,25.7,7,0,0,0.0,0.06,0.00,0.00
15min,AgWx,bigpiney,439,10FEB2019:00:45:00,-5.4,12.51,-9.1,-9.2,-9.1,-8.5,-9.9,83,84,81,0.081,-13.0,-12.1,-14.1,1.381,3.4,265,22,5.3,-0.00001,-0.00001,22.9,25.6,7,0,0,0.0,0.06,0.00,0.00
15min,AgWx,bigpiney,439,10FEB2019:01:00:00,-5.8,12.48,-8.8,-9.9,-9.5,-8.7,-10.0,82,84,81,0.077,-13.4,-12.3,-14.1,4.056,4.1,216,15,6.5,-0.00001,-0.00001,22.9,25.6,7,0,0,0.0,0.06,0.00,0.00
15min,AgWx,bigpiney,439,10FEB2019:01:15:00,-6.1,12.47,-9.8,-10.1,-9.8,-9.5,-10.1,82,82,81,0.076,-13.9,-13.5,-14.4,3.223,3.8,245,12,4.8,-0.00001,-0.00001,22.8,25.6,7,0,0,0.0,0.06,0.00,0.00
15min,AgWx,bigpiney,439,10FEB2019:01:30:00,-6.3,12.46,-8.8,-9.2,-9.4,-8.3,-10.8,83,86,81,0.081,-13.1,-11.5,-15.0,1.754,1.6,236,30,3.7,-0.00003,-0.00003,22.7,25.5,7,0,0,0.0,0.06,0.00,0.00
15min,AgWx,bigpiney,439,10FEB2019:01:45:00,-6.3,12.44,-6.8,-7.4,-7.9,-7.1,-9.3,84,85,83,0.089,-11.6,-10.8,-13.2,1.403,0.1,269,18,1.5,-0.00005,-0.00008,22.7,25.5,7,0,0,0.0,0.06,0.00,0.00
15min,AgWx,bigpiney,439,10FEB2019:02:00:00,-6.0,12.43,-8.8,-9.4,-8.5,-7.4,-9.4,83,84,83,0.081,-12.2,-11.1,-13.0,0.175,1.7,341,22,3.0,-0.00003,-0.00003,22.6,25.5,7,0,0,0.0,0.06,0.00,0.00
15min,AgWx,bigpiney,439,10FEB2019:02:15:00,-6.0,12.42,-7.6,-8.4,-8.6,-8.1,-9.4,84,85,83,0.085,-12.1,-11.4,-13.1,1.491,1.0,294,69,2.8,-0.00004,-0.00005,22.5,25.5,7,0,0,0.0,0.06,0.00,0.00
15min,AgWx,bigpiney,439,10FEB2019:02:30:00,-6.0,12.4,-5.3,-6.9,-7.3,-6.7,-8.4,84,86,83,0.091,-10.8,-10.1,-12.0,0,1.3,344,35,2.3,-0.00003,-0.00004,22.5,25.5,7,0,0,0.0,0.06,0.00,0.00
15min,AgWx,bigpiney,439,10FEB2019:02:45:00,-6.1,12.39,-6.5,-7.9,-8.2,-6.6,-8.9,83,85,82,0.088,-11.9,-10.0,-12.9,2.784,3.4,182,7.4,5.2,-0.00001,-0.00001,22.4,25.4,7,0,0,0.0,0.06,0.00,0.00
15min,AgWx,bigpiney,439,10FEB2019:03:00:00,-6.3,12.39,-7.4,-8.2,-8.9,-7.7,-9.5,83,85,82,0.086,-12.6,-11.0,-13.5,4.911,4.4,227,12,5.3,-0.00001,-0.00001,22.4,25.4,7,0,0,0.0,0.06,0.00,0.00
15min,AgWx,bigpiney,439,10FEB2019:03:15:00,-6.5,12.36,-9.2,-9.7,-8.7,-8.1,-9.8,83,84,81,0.077,-12.6,-11.7,-14.0,3.705,3.6,215,8.6,4.7,-0.00001,-0.00001,22.3,25.3,7,0,0,0.0,0.06,0.00,0.00
15min,AgWx,bigpiney,439,10FEB2019:03:30:00,-6.7,12.37,-9.5,-10.2,-10.1,-9.5,-10.4,82,82,81,0.076,-14.2,-13.4,-14.5,3.244,4.6,206,6.0,6.2,-0.00000,-0.00000,22.3,25.3,7,0,0,0.0,0.06,0.00,0.00
15min,AgWx,bigpiney,439,10FEB2019:03:45:00,-7.0,12.36,-10.2,-10.9,-10.6,-9.9,-11.2,81,82,80,0.072,-14.8,-14.0,-15.8,3.551,3.3,203,8.0,4.7,-0.00001,-0.00001,22.2,25.3,7,0,0,0.0,0.06,0.00,0.00
15min,AgWx,bigpiney,439,10FEB2019:04:00:00,-7.3,12.36,-10.8,-11.7,-11.5,-10.8,-12.2,80,81,79,0.070,-16.0,-15.2,-16.8,3.617,4.6,228,6.5,6.0,-0.00000,-0.00000,22.2,25.3,7,0,0,0.0,0.06,0.00,0.00
15min,AgWx,bigpiney,439,10FEB2019:04:15:00,-7.7,12.35,-8.8,-9.2,-10.7,-9.1,-11.7,82,83,81,0.080,-14.8,-12.9,-15.9,3.968,4.1,182,35,5.3,-0.00001,-0.00001,22.1,25.3,7,0,0,0.0,0.06,0.00,0.00
15min,AgWx,bigpiney,439,10FEB2019:04:30:00,-7.8,12.34,-10.8,-10.2,-9.2,-8.4,-10.2,82,83,80,0.074,-13.3,-12.3,-14.7,1.776,1.8,204,29,3.9,-0.00002,-0.00003,22.1,25.2,7,0,0,0.0,0.06,0.00,0.00
15min,AgWx,bigpiney,439,10FEB2019:04:45:00,-7.9,12.33,-7.9,-9.7,-10.4,-8.8,-11.7,81,84,79,0.079,-14.7,-12.4,-16.3,1.162,0.9,236,49,2.1,-0.00003,-0.00004,22.0,25.2,7,0,0,0.0,0.06,0.00,0.00
15min,AgWx,bigpiney,439,10FEB2019:05:00:00,-8.0,12.33,-10.0,-11.1,-11.1,-9.1,-11.8,81,85,80,0.072,-15.3,-12.5,-16.3,2.609,1.1,293,37,2.9,-0.00003,-0.00004,22.0,25.1,7,0,0,0.0,0.06,0.00,0.00
15min,AgWx,bigpiney,439,10FEB2019:05:15:00,-7.8,12.33,-8.9,-9.8,-10.0,-9.8,-11.1,83,84,82,0.078,-13.8,-13.4,-15.1,1.732,2.3,309,7.9,3.2,-0.00002,-0.00002,21.9,25.2,7,0,0,0.0,0.06,0.00,0.00
15min,AgWx,bigpiney,439,10FEB2019:05:30:00,-7.5,12.33,-10.0,-10.3,-9.6,-9.2,-10.3,82,83,81,0.075,-13.6,-13.1,-14.4,2.872,1.6,320,23,2.9,-0.00003,-0.00003,21.9,25.2,7,0,0,0.0,0.06,0.00,0.00
15min,AgWx,bigpiney,439,10FEB2019:05:45:00,-7.5,12.31,-9.3,-10.1,-10.6,-10.1,-11.2,81,82,80,0.077,-14.8,-14.0,-15.6,2.565,2.5,295,6.8,3.1,-0.00002,-0.00002,21.8,25.1,7,0,0,0.0,0.06,0.00,0.00
15min,AgWx,bigpiney,439,10FEB2019:06:00:00,-7.7,12.32,-14.0,-13.3,-11.0,-9.9,-13.3,81,82,78,0.062,-15.2,-13.9,-18.1,1.578,1.3,240,38,2.8,-0.00003,-0.00003,21.8,25.0,7,0,0,0.0,0.06,0.00,0.00
15min,AgWx,bigpiney,439,10FEB2019:06:15:00,-8.0,12.32,-10.0,-11.1,-12.9,-11.1,-14.2,80,82,77,0.072,-17.3,-15.2,-19.2,2.258,2.4,226,11,3.8,-0.00001,-0.00002,21.8,25.0,7,0,0,0.0,0.06,0.00,0.00
15min,AgWx,bigpiney,439,10FEB2019:06:30:00,-7.9,12.31,-7.3,-8.0,-9.1,-7.9,-11.1,83,84,82,0.086,-12.9,-11.6,-15.1,2.368,1.8,292,39,2.9,-0.00002,-0.00003,21.7,25.0,7,0,0,0.0,0.06,0.00,0.00
15min,AgWx,bigpiney,439,10FEB2019:06:45:00,-7.2,12.31,-7.4,-8.0,-7.7,-7.3,-8.0,83,83,82,0.085,-11.6,-11.0,-12.0,3.486,2.4,334,20,4.1,-0.00002,-0.00002,21.7,25.0,7,0,0,0.0,0.06,0.00,0.00
15min,AgWx,bigpiney,439,10FEB2019:07:00:00,-6.4,12.31,-6.0,-6.9,-7.8,-6.9,-8.1,82,83,82,0.090,-11.8,-10.8,-12.1,0.745,2.0,316,31,3.8,-0.00002,-0.00003,21.6,25.0,7,0,0,0.0,0.06,0.00,0.00
15min,AgWx,bigpiney,439,10FEB2019:07:15:00,-5.7,12.31,-4.2,-4.9,-5.6,-4.9,-6.9,83,84,83,0.100,-9.4,-8.7,-10.8,0,0.2,270,3.2,1.6,-0.00006,-0.00008,21.6,24.9,7,1,0,0.0,0.06,0.00,0.00
15min,AgWx,bigpiney,439,10FEB2019:07:30:00,-4.9,12.33,-3.3,-4.0,-4.5,-3.9,-4.9,83,83,83,0.104,-8.3,-7.7,-8.8,1.074,0.1,279,4.0,1.1,-0.00006,-0.00009,21.6,24.8,7,4,0,0.0,0.06,0.00,0.00
15min,AgWx,bigpiney,439,10FEB2019:07:45:00,-4.1,12.4,-4.8,-5.4,-4.7,-3.8,-5.6,82,83,81,0.095,-8.9,-7.6,-10.1,4.275,3.2,246,18,5.3,-0.00003,-0.00001,21.6,24.9,7,11,0,0.0,0.06,0.00,0.00
15min,AgWx,bigpiney,439,10FEB2019:08:00:00,-3.4,12.61,-3.1,-3.8,-4.4,-3.6,-5.4,83,85,82,0.105,-8.3,-7.1,-9.5,3.244,3.0,242,14,4.3,-0.00001,0.00001,21.6,24.8,7,26,0,0.0,0.06,0.00,0.00
15min,AgWx,bigpiney,439,10FEB2019:08:15:00,-2.7,13.07,-2.1,-3.0,-3.4,-3.0,-3.8,84,84,83,0.110,-7.1,-6.7,-7.6,5.064,5.1,227,5.3,6.2,0.00004,0.00007,21.6,24.8,7,49,0,0.0,0.06,0.00,0.00